This is the latest recevied weather packets stored in our database for station/object KA7EII-13. If no packets are shown the sender has not sent any weather packets the latest 10 day(s).
| Time | Temp. | Humidity | Pressure | Rain* | Wind** | Luminosity | Snow |
|---|---|---|---|---|---|---|---|
| 1777667032 | 18.89° C | 30% | 1110.2 hPa | 0 mm | - | 713 W/m² | - |
| 1777666729 | 18.89° C | 27% | 1110 hPa | 0 mm | - | 738 W/m² | - |
| 1777666425 | 18.33° C | 27% | 1110.2 hPa | 0 mm | - | 726 W/m² | - |
| 1777666122 | 18.33° C | 30% | 1110.2 hPa | 0 mm | - | 740 W/m² | - |
| 1777665819 | 17.78° C | 28% | 1110.3 hPa | 0 mm | - | 790 W/m² | - |
| 1777665517 | 18.33° C | 29% | 1110.3 hPa | 0 mm | - | 775 W/m² | - |
| 1777665212 | 17.78° C | 29% | 1110.2 hPa | 0 mm | - | 781 W/m² | - |
| 1777664909 | 18.33° C | 31% | 1110.5 hPa | 0 mm | - | 785 W/m² | - |
| 1777664605 | 17.78° C | 29% | 1110.3 hPa | 0 mm | - | 748 W/m² | - |
| 1777664301 | 17.78° C | 30% | 1110.5 hPa | 0 mm | - | 717 W/m² | - |
| 1777664000 | 18.33° C | 29% | 1110.5 hPa | 0 mm | - | 738 W/m² | - |
| 1777663697 | 17.78° C | 30% | 1110.5 hPa | 0 mm | - | 765 W/m² | - |
| 1777663394 | 17.78° C | 31% | 1110.5 hPa | 0 mm | - | 752 W/m² | - |
| 1777663091 | 17.78° C | 30% | 1110.7 hPa | 0 mm | - | 731 W/m² | - |
| 1777662789 | 17.78° C | 30% | 1110.7 hPa | 0 mm | - | 729 W/m² | - |
| 1777662485 | 17.78° C | 30% | 1110.6 hPa | 0 mm | - | 752 W/m² | - |
| 1777662181 | 16.67° C | 30% | 1110.7 hPa | 0 mm | - | 763 W/m² | - |
| 1777661876 | 17.78° C | 33% | 1110.7 hPa | 0 mm | - | 737 W/m² | - |
| 1777661572 | 17.22° C | 34% | 1110.6 hPa | 0 mm | - | 733 W/m² | - |
| 1777661269 | 16.67° C | 31% | 1110.9 hPa | 0 mm | - | 736 W/m² | - |
| 1777660964 | 17.22° C | 31% | 1111 hPa | 0 mm | - | 704 W/m² | - |
| 1777660660 | 16.67° C | 31% | 1110.9 hPa | 0 mm | - | 680 W/m² | - |
| 1777660358 | 16.11° C | 30% | 1111 hPa | 0 mm | - | 687 W/m² | - |
| 1777660054 | 16.11° C | 30% | 1110.8 hPa | 0 mm | - | 672 W/m² | - |
| 1777659751 | 16.11° C | 30% | 1111.3 hPa | 0 mm | - | 659 W/m² | - |
* Rain latest hour (hover to see other rain measurements)
** Current wind speed in m/s (hover to see current wind gust speed)